sat.trackr.live / text

‹ back to catalog

2025-226B

NORAD 65939 · 2025-226B

PAYLOAD ACTIVE UNKNOWN

§ Identity

Operator
Country
PRC
Launch date
2025-10-11
Launch site
YSLA
Launch vehicle
Mass (kg)
RCS (m²)

External: N2YO · Heavens-Above · Gunter

§ Orbital elements

Epoch: 2026-09-20T10:44:04.529760Z

Period
95.40 min
Inclination
97.6329°
Eccentricity
0.0012287
Mean motion
15.09391601 rev/d
Perigee alt
529.6 km
Apogee alt
546.6 km
Semi-major
6,916.2 km
B*
1.5221e-4
RAAN
341.6040°
Arg perigee
174.8714°
Mean anomaly
185.2642°
Rev number
5,194

§ Raw data

2025-226B1 65939U 25226B   26263.44727465  .00002371  00000+0  15221-3 0  99932 65939  97.6329 341.6040 0012287 174.8714 185.2642 15.09391601 51942

JSON: /api/v1/satellites/65939 · /tle

For live sub-satellite position, see the globe view (requires WebGL).

§ Visibility from observer

Set your observer location to see the next 7 days of passes ≥ 10°. The values pass through the URL so the page stays shareable.

No JS? Fill the form by hand. The geolocation button needs JavaScript.